| time (UTC) | temp C | wind direction | speed KPH | gust KPH | rain 1hr cm | rain 24hr cm | rain mn cm | humidity % | barometer mb |
| 20260903235505 | -17 | 80 | 0.0 | 3.2 | 0.00 | 0.00 | 0.00 | 1014.8 | |
| 20260903235003 | -17 | 119 | 1.6 | 3.2 | 0.00 | 0.00 | 0.00 | 1014.7 | |
| 20260903234501 | -17 | 112 | 0.0 | 3.2 | 0.00 | 0.00 | 0.00 | 1014.7 | |
| 20260903234100 | -17 | 80 | 0.0 | 3.2 | 0.00 | 0.00 | 0.00 | 1014.7 | |
| 20260903233602 | -17 | 109 | 0.0 | 3.2 | 0.00 | 0.00 | 0.00 | 1014.6 | |
| 20260903233101 | -17 | 115 | 0.0 | 3.2 | 0.00 | 0.00 | 0.00 | 1014.6 | |
| 20260903232555 | -17 | 113 | 0.0 | 1.6 | 0.00 | 0.00 | 0.00 | 1014.6 | |
| 20260903232054 | -17 | 100 | 0.0 | 1.6 | 0.00 | 0.00 | 0.00 | 1014.6 | |
| 20260903231553 | -17 | 44 | 0.0 | 1.6 | 0.00 | 0.00 | 0.00 | 1014.6 | |
| 20260903231051 | -17 | 101 | 0.0 | 3.2 | 0.00 | 0.00 | 0.00 | 1014.5 | |
| 20260903230549 | -17 | 111 | 0.0 | 3.2 | 0.00 | 0.00 | 0.00 | 1014.4 | |
| 20260903230050 | -17 | 143 | 0.0 | 1.6 | 0.00 | 0.00 | 0.00 | 1014.5 | |
| 20260903225548 | -17 | 107 | 0.0 | 1.6 | 0.00 | 0.00 | 0.00 | 1014.4 | |
| 20260903225045 | -17 | 17 | 0.0 | 3.2 | 0.00 | 0.00 | 0.00 | 1014.4 | |
| 20260903224544 | -17 | 117 | 0.0 | 3.2 | 0.00 | 0.00 | 0.00 | 1014.2 | |
| 20260903224042 | -17 | 119 | 0.0 | 3.2 | 0.00 | 0.00 | 0.00 | 1014.4 | |
| 20260903223541 | -17 | 96 | 0.0 | 3.2 | 0.00 | 0.00 | 0.00 | 1014.5 | |
| 20260903223041 | -17 | 94 | 0.0 | 1.6 | 0.00 | 0.00 | 0.00 | 1014.3 | |
| 20260903222537 | -17 | 96 | 0.0 | 1.6 | 0.00 | 0.00 | 0.00 | 1014.3 | |
| 20260903222036 | -17 | 109 | 0.0 | 1.6 | 0.00 | 0.00 | 0.00 | 1014.5 | |
| 20260903221537 | -17 | 116 | 0.0 | 3.2 | 0.00 | 0.00 | 0.00 | 1014.5 | |
| 20260903221034 | -17 | 119 | 0.0 | 3.2 | 0.00 | 0.00 | 0.00 | 1014.4 | |
| 20260903220533 | -17 | 125 | 0.0 | 3.2 | 0.00 | 0.00 | 0.00 | 1014.5 | |
| 20260903220033 | -17 | 113 | 0.0 | 3.2 | 0.00 | 0.00 | 0.00 | 1014.6 | |
| 20260903215533 | -17 | 88 | 0.0 | 3.2 | 0.00 | 0.00 | 0.00 | 1014.7 | |
| 20260903215032 | -17 | 107 | 0.0 | 3.2 | 0.00 | 0.00 | 0.00 | 1014.7 | |
| 20260903214539 | -17 | 109 | 0.0 | 3.2 | 0.00 | 0.00 | 0.00 | 1014.5 | |
| 20260903214031 | -17 | 188 | 0.0 | 3.2 | 0.00 | 0.00 | 0.00 | 1014.6 | |
| 20260903213531 | -17 | 131 | 1.6 | 3.2 | 0.00 | 0.00 | 0.00 | 1014.5 | |
| 20260903213029 | -17 | 127 | 0.0 | 3.2 | 0.00 | 0.00 | 0.00 | 1014.5 | |
| 20260903212527 | -17 | 134 | 1.6 | 4.8 | 0.00 | 0.00 | 0.00 | 1014.5 | |
| 20260903212025 | -17 | 117 | 1.6 | 4.8 | 0.00 | 0.00 | 0.00 | 1014.6 | |
| 20260903211524 | -17 | 121 | 0.0 | 4.8 | 0.00 | 0.00 | 0.00 | 1014.6 | |
| 20260903211023 | -17 | 128 | 1.6 | 8.0 | 0.00 | 0.00 | 0.00 | 1014.7 | |
| 20260903210521 | -17 | 137 | 1.6 | 8.0 | 0.00 | 0.00 | 0.00 | 1014.8 | |
| 20260903210021 | -17 | 121 | 1.6 | 4.8 | 0.00 | 0.00 | 0.00 | 1014.8 | |
| 20260903205520 | -17 | 151 | 1.6 | 3.2 | 0.00 | 0.00 | 0.00 | 1014.8 | |
| 20260903205017 | -17 | 127 | 1.6 | 4.8 | 0.00 | 0.00 | 0.00 | 1014.7 | |
| 20260903204515 | -17 | 116 | 1.6 | 4.8 | 0.00 | 0.00 | 0.00 | 1014.8 | |
| 20260903204017 | -17 | 150 | 1.6 | 6.4 | 0.00 | 0.00 | 0.00 | 1014.8 | |
| 20260903203512 | -17 | 119 | 1.6 | 6.4 | 0.00 | 0.00 | 0.00 | 1014.9 | |
| 20260903203011 | -17 | 152 | 1.6 | 6.4 | 0.00 | 0.00 | 0.00 | 1015.0 | |
| 20260903202509 | -17 | 114 | 1.6 | 4.8 | 0.00 | 0.00 | 0.00 | 1015.0 | |
| 20260903202008 | -17 | 130 | 1.6 | 4.8 | 0.00 | 0.00 | 0.00 | 1015.1 | |
| 20260903201507 | -17 | 131 | 1.6 | 4.8 | 0.00 | 0.00 | 0.00 | 1015.2 | |
| 20260903201006 | -17 | 115 | 0.0 | 4.8 | 0.00 | 0.00 | 0.00 | 1015.1 | |
| 20260903200504 | -17 | 120 | 1.6 | 6.4 | 0.00 | 0.00 | 0.00 | 1015.4 | |
| 20260903200003 | -17 | 117 | 1.6 | 6.4 | 0.00 | 0.00 | 0.00 | 1015.4 | |
| 20260903195501 | -17 | 111 | 0.0 | 3.2 | 0.00 | 0.00 | 0.00 | 1015.5 | |
| 20260903195059 | -17 | 95 | 1.6 | 3.2 | 0.00 | 0.00 | 0.00 | 1015.5 | |
| 20260903194559 | -17 | 109 | 0.0 | 3.2 | 0.00 | 0.00 | 0.00 | 1015.6 | |
| 20260903194056 | -17 | 64 | 1.6 | 3.2 | 0.00 | 0.00 | 0.00 | 1015.6 | |
| 20260903193555 | -17 | 134 | 1.6 | 3.2 | 0.00 | 0.00 | 0.00 | 1015.7 | |
| 20260903193054 | -17 | 98 | 0.0 | 3.2 | 0.00 | 0.00 | 0.00 | 1015.6 | |
| 20260903192553 | -17 | 109 | 0.0 | 4.8 | 0.00 | 0.00 | 0.00 | 1015.7 | |
| 20260903192051 | -17 | 140 | 0.0 | 4.8 | 0.00 | 0.00 | 0.00 | 1015.7 | |
| 20260903191549 | -17 | 128 | 1.6 | 4.8 | 0.00 | 0.00 | 0.00 | 1015.7 | |
| 20260903191048 | -17 | 137 | 1.6 | 4.8 | 0.00 | 0.00 | 0.00 | 1015.8 | |
| 20260903190546 | -17 | 101 | 1.6 | 4.8 | 0.00 | 0.00 | 0.00 | 1016.0 | |
| 20260903190045 | -17 | 124 | 1.6 | 6.4 | 0.00 | 0.00 | 0.00 | 1016.0 | |
| 20260903185543 | -17 | 109 | 3.2 | 6.4 | 0.00 | 0.00 | 0.00 | 1016.1 | |
| 20260903185042 | -17 | 116 | 1.6 | 4.8 | 0.00 | 0.00 | 0.00 | 1016.2 | |
| 20260903184549 | -17 | 86 | 0.0 | 4.8 | 0.00 | 0.00 | 0.00 | 1016.2 | |
| 20260903184039 | -17 | 78 | 0.0 | 4.8 | 0.00 | 0.00 | 0.00 | 1016.4 | |
| 20260903183537 | -17 | 140 | 0.0 | 3.2 | 0.00 | 0.00 | 0.00 | 1016.5 | |
| 20260903183038 | -17 | 78 | 0.0 | 3.2 | 0.00 | 0.00 | 0.00 | 1016.6 | |
| 20260903182535 | -17 | 119 | 0.0 | 3.2 | 0.00 | 0.00 | 0.00 | 1016.5 | |
| 20260903182034 | -17 | 81 | 0.0 | 3.2 | 0.00 | 0.00 | 0.00 | 1016.6 | |
| 20260903181532 | -17 | 99 | 0.0 | 3.2 | 0.00 | 0.00 | 0.00 | 1016.6 | |
| 20260903181035 | -17 | 360 | 0.0 | 4.8 | 0.00 | 0.00 | 0.00 | 1016.6 | |
| 20260903180530 | -17 | 123 | 1.6 | 4.8 | 0.00 | 0.00 | 0.00 | 1016.7 | |
| 20260903180028 | -17 | 108 | 0.0 | 4.8 | 0.00 | 0.00 | 0.00 | 1016.9 | |
| 20260903175530 | -17 | 111 | 1.6 | 4.8 | 0.00 | 0.00 | 0.00 | 1016.9 | |
| 20260903175028 | -17 | 123 | 1.6 | 4.8 | 0.00 | 0.00 | 0.00 | 1016.9 | |
| 20260903174534 | -17 | 355 | 0.0 | 4.8 | 0.00 | 0.00 | 0.00 | 1016.9 | |
| 20260903174025 | -17 | 103 | 0.0 | 4.8 | 0.00 | 0.00 | 0.00 | 1016.9 | |
| 20260903173527 | -17 | 84 | 1.6 | 3.2 | 0.00 | 0.00 | 0.00 | 1017.0 | |
| 20260903173034 | -17 | 82 | 0.0 | 3.2 | 0.00 | 0.00 | 0.00 | 1017.0 | |
| 20260903172520 | -17 | 69 | 0.0 | 4.8 | 0.00 | 0.00 | 0.00 | 1016.9 | |
| 20260903172020 | -17 | 82 | 1.6 | 4.8 | 0.00 | 0.00 | 0.00 | 1017.1 | |
| 20260903171518 | -17 | 115 | 1.6 | 4.8 | 0.00 | 0.00 | 0.00 | 1017.0 | |
| 20260903171016 | -17 | 138 | 1.6 | 4.8 | 0.00 | 0.00 | 0.00 | 1017.0 | |
| 20260903170515 | -17 | 132 | 1.6 | 4.8 | 0.00 | 0.00 | 0.00 | 1017.1 | |
| 20260903170018 | -17 | 142 | 1.6 | 4.8 | 0.00 | 0.00 | 0.00 | 1017.1 | |
| 20260903165511 | -17 | 84 | 0.0 | 4.8 | 0.00 | 0.00 | 0.00 | 1017.1 | |
| 20260903165013 | -17 | 78 | 1.6 | 4.8 | 0.00 | 0.00 | 0.00 | 1017.1 | |
| 20260903164509 | -17 | 319 | 1.6 | 4.8 | 0.00 | 0.00 | 0.00 | 1017.2 | |
| 20260903164007 | -17 | 107 | 1.6 | 6.4 | 0.00 | 0.00 | 0.00 | 1017.3 | |
| 20260903163505 | -17 | 29 | 1.6 | 6.4 | 0.00 | 0.00 | 0.00 | 1017.2 | |
| 20260903163005 | -17 | 73 | 1.6 | 4.8 | 0.00 | 0.00 | 0.00 | 1017.3 | |
| 20260903162502 | -17 | 155 | 1.6 | 4.8 | 0.00 | 0.00 | 0.00 | 1017.3 | |
| 20260903162003 | -17 | 71 | 1.6 | 9.7 | 0.00 | 0.00 | 0.00 | 1017.4 | |
| 20260903161601 | -17 | 109 | 1.6 | 9.7 | 0.00 | 0.00 | 0.00 | 1017.4 | |
| 20260903161103 | -17 | 114 | 1.6 | 4.8 | 0.00 | 0.00 | 0.00 | 1017.5 | |
| 20260903160557 | -17 | 82 | 1.6 | 6.4 | 0.00 | 0.00 | 0.00 | 1017.4 | |
| 20260903160055 | -17 | 30 | 1.6 | 6.4 | 0.00 | 0.00 | 0.00 | 1017.6 | |
| 20260903155558 | -17 | 153 | 0.0 | 4.8 | 0.00 | 0.00 | 0.00 | 1017.6 | |
| 20260903155053 | -17 | 14 | 1.6 | 4.8 | 0.00 | 0.00 | 0.00 | 1017.8 | |
| 20260903154551 | -17 | 146 | 1.6 | 4.8 | 0.00 | 0.00 | 0.00 | 1017.7 | |
| 20260903154050 | -17 | 355 | 0.0 | 6.4 | 0.00 | 0.00 | 0.00 | 1017.9 | |
| 20260903153547 | -17 | 321 | 1.6 | 6.4 | 0.00 | 0.00 | 0.00 | 1018.0 | |
| 20260903153051 | -17 | 92 | 0.0 | 6.4 | 0.00 | 0.00 | 0.00 | 1017.9 | |
| 20260903152545 | -17 | 118 | 0.0 | 4.8 | 0.00 | 0.00 | 0.00 | 1017.9 | |
| 20260903152047 | -17 | 129 | 1.6 | 4.8 | 0.00 | 0.00 | 0.00 | 1018.0 | |
| 20260903151542 | -17 | 326 | 1.6 | 4.8 | 0.00 | 0.00 | 0.00 | 1018.0 | |
| 20260903151041 | -17 | 87 | 0.0 | 3.2 | 0.00 | 0.00 | 0.00 | 1017.9 | |
| 20260903150539 | -17 | 87 | 0.0 | 3.2 | 0.00 | 0.00 | 0.00 | 1018.0 | |
| 20260903150038 | -17 | 101 | 0.0 | 4.8 | 0.00 | 0.00 | 0.00 | 1017.9 | |
| 20260903145536 | -17 | 5 | 1.6 | 6.4 | 0.00 | 0.00 | 0.00 | 1017.9 | |
| 20260903145035 | -17 | 113 | 1.6 | 4.8 | 0.00 | 0.00 | 0.00 | 1017.7 | |
| 20260903144534 | -17 | 24 | 0.0 | 4.8 | 0.00 | 0.00 | 0.00 | 1017.8 | |
| 20260903144033 | -17 | 126 | 0.0 | 9.7 | 0.00 | 0.00 | 0.00 | 1017.6 | |
| 20260903143530 | -17 | 336 | 3.2 | 9.7 | 0.00 | 0.00 | 0.00 | 1017.7 | |
| 20260903143028 | -17 | 105 | 0.0 | 3.2 | 0.00 | 0.00 | 0.00 | 1017.3 | |
| 20260903142527 | -17 | 59 | 0.0 | 1.6 | 0.00 | 0.00 | 0.00 | 1017.3 | |
| 20260903142028 | -17 | 94 | 0.0 | 1.6 | 0.00 | 0.00 | 0.00 | 1017.3 | |
| 20260903141524 | -17 | 119 | 0.0 | 1.6 | 0.00 | 0.00 | 0.00 | 1017.3 | |
| 20260903141023 | -17 | 119 | 0.0 | 3.2 | 0.00 | 0.00 | 0.00 | 1017.4 | |
| 20260903140522 | -17 | 117 | 1.6 | 3.2 | 0.00 | 0.00 | 0.00 | 1017.3 | |
| 20260903140036 | -17 | 97 | 0.0 | 3.2 | 0.00 | 0.00 | 0.00 | 1017.4 | |
| 20260903135519 | -17 | 141 | 0.0 | 3.2 | 0.00 | 0.00 | 0.00 | 1017.3 | |
| 20260903135022 | -17 | 115 | 0.0 | 4.8 | 0.00 | 0.00 | 0.00 | 1017.3 | |
| 20260903134520 | -17 | 116 | 0.0 | 4.8 | 0.00 | 0.00 | 0.00 | 1017.3 | |
| 20260903134021 | -17 | 106 | 0.0 | 4.8 | 0.00 | 0.00 | 0.00 | 1017.4 | |
| 20260903133512 | -17 | 110 | 1.6 | 3.2 | 0.00 | 0.00 | 0.00 | 1017.4 | |
| 20260903133012 | -17 | 109 | 0.0 | 3.2 | 0.00 | 0.00 | 0.00 | 1017.4 | |
| 20260903132510 | -17 | 121 | 0.0 | 3.2 | 0.00 | 0.00 | 0.00 | 1017.4 | |
| 20260903132010 | -17 | 120 | 0.0 | 1.6 | 0.00 | 0.00 | 0.00 | 1017.5 | |
| 20260903131509 | -17 | 120 | 0.0 | 3.2 | 0.00 | 0.00 | 0.00 | 1017.6 | |
| 20260903131005 | -17 | 120 | 0.0 | 3.2 | 0.00 | 0.00 | 0.00 | 1017.7 | |
| 20260903130506 | -17 | 115 | 1.6 | 3.2 | 0.00 | 0.00 | 0.00 | 1017.8 | |
| 20260903130003 | -17 | 109 | 0.0 | 3.2 | 0.00 | 0.00 | 0.00 | 1017.8 | |
| 20260903125502 | -17 | 114 | 0.0 | 0.0 | 0.00 | 0.00 | 0.00 | 1017.9 | |
| 20260903125101 | -17 | 114 | 0.0 | 1.6 | 0.00 | 0.00 | 0.00 | 1018.0 | |
| 20260903124607 | -17 | 114 | 0.0 | 1.6 | 0.00 | 0.00 | 0.00 | 1017.9 | |
| 20260903124056 | -17 | 112 | 0.0 | 1.6 | 0.00 | 0.00 | 0.00 | 1017.9 | |
| 20260903123556 | -17 | 109 | 0.0 | 1.6 | 0.00 | 0.00 | 0.00 | 1017.9 | |
| 20260903123053 | -17 | 104 | 0.0 | 0.0 | 0.00 | 0.00 | 0.00 | 1017.9 | |
| 20260903122552 | -17 | 104 | 0.0 | 0.0 | 0.00 | 0.00 | 0.00 | 1018.0 | |
| 20260903122050 | -17 | 104 | 0.0 | 0.0 | 0.00 | 0.00 | 0.00 | 1018.0 | |
| 20260903121549 | -17 | 104 | 0.0 | 1.6 | 0.00 | 0.00 | 0.00 | 1018.1 | |
| 20260903121047 | -17 | 106 | 0.0 | 1.6 | 0.00 | 0.00 | 0.00 | 1018.0 | |
| 20260903120546 | -17 | 121 | 0.0 | 1.6 | 0.00 | 0.00 | 0.00 | 1017.9 | |
| 20260903120047 | -17 | 106 | 0.0 | 0.0 | 0.00 | 0.00 | 0.00 | 1017.9 | |
| 20260903115547 | -17 | 106 | 0.0 | 0.0 | 0.00 | 0.00 | 0.00 | 1017.8 | |
| 20260903115042 | -17 | 106 | 0.0 | 1.6 | 0.00 | 0.00 | 0.00 | 1017.8 | |
| 20260903114541 | -17 | 105 | 0.0 | 1.6 | 0.00 | 0.00 | 0.00 | 1017.7 | |
| 20260903114038 | -17 | 109 | 0.0 | 1.6 | 0.00 | 0.00 | 0.00 | 1017.7 | |
| 20260903113537 | -17 | 110 | 0.0 | 0.0 | 0.00 | 0.00 | 0.00 | 1017.7 | |
| 20260903113036 | -17 | 110 | 0.0 | 0.0 | 0.00 | 0.00 | 0.00 | 1017.5 | |
| 20260903112536 | -17 | 110 | 0.0 | 3.2 | 0.00 | 0.00 | 0.00 | 1017.5 | |
| 20260903112033 | -17 | 108 | 0.0 | 3.2 | 0.00 | 0.00 | 0.00 | 1017.5 | |
| 20260903111535 | -17 | 124 | 0.0 | 3.2 | 0.00 | 0.00 | 0.00 | 1017.5 | |
| 20260903111031 | -17 | 132 | 0.0 | 0.0 | 0.00 | 0.00 | 0.00 | 1017.4 | |
| 20260903110529 | -17 | 132 | 0.0 | 0.0 | 0.00 | 0.00 | 0.00 | 1017.3 | |
| 20260903110027 | -17 | 132 | 0.0 | 3.2 | 0.00 | 0.00 | 0.00 | 1017.2 | |
| 20260903105525 | -17 | 132 | 0.0 | 3.2 | 0.00 | 0.00 | 0.00 | 1017.3 | |
| 20260903105024 | -17 | 113 | 0.0 | 3.2 | 0.00 | 0.00 | 0.00 | 1017.4 | |
| 20260903104524 | -17 | 131 | 1.6 | 3.2 | 0.00 | 0.00 | 0.00 | 1017.3 | |
| 20260903104027 | -17 | 34 | 0.0 | 0.0 | 0.00 | 0.00 | 0.00 | 1017.3 | |
| 20260903103521 | -17 | 34 | 0.0 | 0.0 | 0.00 | 0.00 | 0.00 | 1017.3 | |
| 20260903103019 | -17 | 34 | 0.0 | 1.6 | 0.00 | 0.00 | 0.00 | 1017.2 | |
| 20260903102518 | -17 | 31 | 0.0 | 1.6 | 0.00 | 0.00 | 0.00 | 1017.2 | |
| 20260903102019 | -17 | 10 | 0.0 | 1.6 | 0.00 | 0.00 | 0.00 | 1017.2 | |
| 20260903101514 | -17 | 109 | 0.0 | 1.6 | 0.00 | 0.00 | 0.00 | 1017.2 | |
| 20260903101012 | -17 | 132 | 0.0 | 0.0 | 0.00 | 0.00 | 0.00 | 1017.1 | |
| 20260903100511 | -17 | 132 | 0.0 | 3.2 | 0.00 | 0.00 | 0.00 | 1017.1 | |
| 20260903100010 | -17 | 132 | 0.0 | 3.2 | 0.00 | 0.00 | 0.00 | 1017.2 | |
| 20260903095508 | -17 | 132 | 1.6 | 3.2 | 0.00 | 0.00 | 0.00 | 1017.3 | |
| 20260903095007 | -17 | 121 | 1.6 | 3.2 | 0.00 | 0.00 | 0.00 | 1017.4 | |
| 20260903094511 | -17 | 86 | 0.0 | 1.6 | 0.00 | 0.00 | 0.00 | 1017.4 | |
| 20260903094004 | -17 | 58 | 0.0 | 1.6 | 0.00 | 0.00 | 0.00 | 1017.3 | |
| 20260903093503 | -17 | 58 | 0.0 | 1.6 | 0.00 | 0.00 | 0.00 | 1017.3 | |
| 20260903093004 | -17 | 14 | 0.0 | 1.6 | 0.00 | 0.00 | 0.00 | 1017.2 | |
| 20260903092559 | -17 | 105 | 0.0 | 1.6 | 0.00 | 0.00 | 0.00 | 1017.2 | |
| 20260903092058 | -17 | 105 | 0.0 | 1.6 | 0.00 | 0.00 | 0.00 | 1017.1 | |
| 20260903091556 | -17 | 119 | 0.0 | 1.6 | 0.00 | 0.00 | 0.00 | 1017.0 | |
| 20260903091055 | -17 | 121 | 0.0 | 1.6 | 0.00 | 0.00 | 0.00 | 1017.0 | |
| 20260903090554 | -17 | 121 | 0.0 | 0.0 | 0.00 | 0.00 | 0.00 | 1017.0 | |
| 20260903085551 | -17 | 121 | 0.0 | 3.2 | 0.00 | 0.00 | 0.00 | 1016.8 | |
| 20260903085050 | -17 | 112 | 0.0 | 0.0 | 0.00 | 0.00 | 0.00 | 1016.9 | |
| 20260903084549 | -17 | 112 | 0.0 | 0.0 | 0.00 | 0.00 | 0.00 | 1016.9 | |
| 20260903084045 | -17 | 112 | 0.0 | 1.6 | 0.00 | 0.00 | 0.00 | 1016.9 | |
| 20260903083544 | -17 | 112 | 0.0 | 1.6 | 0.00 | 0.00 | 0.00 | 1016.9 | |
| 20260903083056 | -17 | 115 | 0.0 | 1.6 | 0.00 | 0.00 | 0.00 | 1016.7 | |
| 20260903082541 | -17 | 112 | 0.0 | 1.6 | 0.00 | 0.00 | 0.00 | 1016.8 | |
| 20260903082040 | -17 | 103 | 0.0 | 1.6 | 0.00 | 0.00 | 0.00 | 1016.9 | |
| 20260903081539 | -17 | 117 | 0.0 | 0.0 | 0.00 | 0.00 | 0.00 | 1016.8 | |
| 20260903081036 | -17 | 117 | 0.0 | 0.0 | 0.00 | 0.00 | 0.00 | 1016.9 | |
| 20260903080538 | -17 | 117 | 0.0 | 1.6 | 0.00 | 0.00 | 0.00 | 1016.9 | |
| 20260903080035 | -17 | 111 | 0.0 | 1.6 | 0.00 | 0.00 | 0.00 | 1017.0 | |
| 20260903075533 | -17 | 20 | 0.0 | 1.6 | 0.00 | 0.00 | 0.00 | 1016.9 | |
| 20260903075031 | -17 | 89 | 0.0 | 1.6 | 0.00 | 0.00 | 0.00 | 1017.0 | |
| 20260903074529 | -17 | 129 | 0.0 | 0.0 | 0.00 | 0.00 | 0.00 | 1017.1 | |
| 20260903074028 | -17 | 129 | 0.0 | 0.0 | 0.00 | 0.00 | 0.00 | 1017.1 | |
| 20260903073527 | -17 | 129 | 0.0 | 3.2 | 0.00 | 0.00 | 0.00 | 1017.0 | |
| 20260903073024 | -17 | 129 | 1.6 | 3.2 | 0.00 | 0.00 | 0.00 | 1017.1 | |
| 20260903072523 | -17 | 130 | 0.0 | 3.2 | 0.00 | 0.00 | 0.00 | 1017.1 | |
| 20260903072025 | -17 | 116 | 0.0 | 1.6 | 0.00 | 0.00 | 0.00 | 1017.0 | |
| 20260903071521 | -17 | 105 | 0.0 | 0.0 | 0.00 | 0.00 | 0.00 | 1017.2 | |
| 20260903071019 | -17 | 105 | 0.0 | 0.0 | 0.00 | 0.00 | 0.00 | 1017.2 | |
| 20260903070517 | -17 | 105 | 0.0 | 1.6 | 0.00 | 0.00 | 0.00 | 1017.2 | |
| 20260903070020 | -17 | 105 | 0.0 | 1.6 | 0.00 | 0.00 | 0.00 | 1017.3 | |
| 20260903065515 | -17 | 112 | 0.0 | 1.6 | 0.00 | 0.00 | 0.00 | 1017.3 | |
| 20260903065012 | -17 | 103 | 0.0 | 1.6 | 0.00 | 0.00 | 0.00 | 1017.2 | |
| 20260903064511 | -17 | 111 | 0.0 | 1.6 | 0.00 | 0.00 | 0.00 | 1017.2 | |
| 20260903064010 | -17 | 139 | 0.0 | 0.0 | 0.00 | 0.00 | 0.00 | 1017.2 | |
| 20260903063508 | -17 | 139 | 0.0 | 0.0 | 0.00 | 0.00 | 0.00 | 1017.2 | |
| 20260903063006 | -17 | 139 | 0.0 | 1.6 | 0.00 | 0.00 | 0.00 | 1017.2 | |
| 20260903062505 | -17 | 129 | 0.0 | 1.6 | 0.00 | 0.00 | 0.00 | 1017.3 | |
| 20260903062005 | -17 | 142 | 0.0 | 1.6 | 0.00 | 0.00 | 0.00 | 1017.3 | |
| 20260903061503 | -17 | 112 | 0.0 | 1.6 | 0.00 | 0.00 | 0.00 | 1017.3 | |
| 20260903061000 | -17 | 121 | 0.0 | 0.0 | 0.00 | 0.00 | 0.00 | 1017.3 | |
| 20260903060600 | -17 | 121 | 0.0 | 0.0 | 0.00 | 0.00 | 0.00 | 1017.2 | |
| 20260903060134 | -17 | 121 | 0.0 | 3.2 | 0.00 | 0.00 | 0.00 | 1017.4 | |
| 20260903055556 | -17 | 121 | 0.0 | 3.2 | 0.00 | 0.00 | 0.00 | 1017.5 | |
| 20260903055056 | -17 | 123 | 0.0 | 3.2 | 0.00 | 0.00 | 0.00 | 1017.6 | |
| 20260903054554 | -17 | 126 | 1.6 | 3.2 | 0.00 | 0.00 | 0.00 | 1017.6 | |
| 20260903054054 | -17 | 144 | 0.0 | 1.6 | 0.00 | 0.00 | 0.00 | 1017.6 | |
| 20260903053553 | -17 | 113 | 0.0 | 1.6 | 0.00 | 0.00 | 0.00 | 1017.6 | |
| 20260903053050 | -17 | 113 | 0.0 | 1.6 | 0.00 | 0.00 | 0.00 | 1017.8 | |
| 20260903052551 | -17 | 111 | 0.0 | 1.6 | 0.00 | 0.00 | 0.00 | 1017.7 | |
| 20260903052051 | -17 | 103 | 0.0 | 1.6 | 0.00 | 0.00 | 0.00 | 1017.7 | |
| 20260903051552 | -17 | 61 | 0.0 | 1.6 | 0.00 | 0.00 | 0.00 | 1017.8 | |
| 20260903051045 | -17 | 108 | 0.0 | 0.0 | 0.00 | 0.00 | 0.00 | 1017.7 | |
| 20260903050543 | -17 | 108 | 0.0 | 0.0 | 0.00 | 0.00 | 0.00 | 1017.8 | |
| 20260903050042 | -17 | 108 | 0.0 | 1.6 | 0.00 | 0.00 | 0.00 | 1017.8 | |
| 20260903045540 | -17 | 95 | 0.0 | 1.6 | 0.00 | 0.00 | 0.00 | 1017.6 | |
| 20260903045038 | -17 | 107 | 0.0 | 1.6 | 0.00 | 0.00 | 0.00 | 1017.7 | |
| 20260903044540 | -17 | 116 | 0.0 | 1.6 | 0.00 | 0.00 | 0.00 | 1017.6 | |
| 20260903044036 | -17 | 126 | 0.0 | 0.0 | 0.00 | 0.00 | 0.00 | 1017.6 | |
| 20260903043534 | -17 | 126 | 0.0 | 1.6 | 0.00 | 0.00 | 0.00 | 1017.5 | |
| 20260903043032 | -17 | 126 | 0.0 | 1.6 | 0.00 | 0.00 | 0.00 | 1017.6 | |
| 20260903042531 | -17 | 126 | 0.0 | 1.6 | 0.00 | 0.00 | 0.00 | 1017.4 | |
| 20260903042030 | -17 | 126 | 0.0 | 1.6 | 0.00 | 0.00 | 0.00 | 1017.3 | |
| 20260903041528 | -17 | 126 | 0.0 | 1.6 | 0.00 | 0.00 | 0.00 | 1017.3 | |
| 20260903041027 | -17 | 130 | 0.0 | 1.6 | 0.00 | 0.00 | 0.00 | 1017.2 | |
| 20260903040525 | -17 | 136 | 0.0 | 1.6 | 0.00 | 0.00 | 0.00 | 1017.4 | |
| 20260903040037 | -17 | 136 | 0.0 | 1.6 | 0.00 | 0.00 | 0.00 | 1017.3 | |
| 20260903035523 | -17 | 136 | 0.0 | 1.6 | 0.00 | 0.00 | 0.00 | 1017.3 | |
| 20260903035024 | -17 | 136 | 0.0 | 1.6 | 0.00 | 0.00 | 0.00 | 1017.4 | |
| 20260903034523 | -17 | 138 | 0.0 | 1.6 | 0.00 | 0.00 | 0.00 | 1017.2 | |
| 20260903034022 | -17 | 138 | 0.0 | 1.6 | 0.00 | 0.00 | 0.00 | 1017.2 | |
| 20260903033523 | -17 | 138 | 0.0 | 1.6 | 0.00 | 0.00 | 0.00 | 1017.2 | |
| 20260903033023 | -17 | 138 | 0.0 | 1.6 | 0.00 | 0.00 | 0.00 | 1017.2 | |
| 20260903032524 | -17 | 138 | 0.0 | 1.6 | 0.00 | 0.00 | 0.00 | 1017.2 | |
| 20260903032022 | -17 | 138 | 0.0 | 1.6 | 0.00 | 0.00 | 0.00 | 1017.3 | |
| 20260903031531 | -17 | 138 | 0.0 | 1.6 | 0.00 | 0.00 | 0.00 | 1017.3 | |
| 20260903031022 | -17 | 142 | 0.0 | 1.6 | 0.00 | 0.00 | 0.00 | 1017.2 | |
| 20260903030522 | -17 | 138 | 0.0 | 1.6 | 0.00 | 0.00 | 0.00 | 1017.2 | |
| 20260903030022 | -17 | 138 | 0.0 | 1.6 | 0.00 | 0.00 | 0.00 | 1017.3 | |
| 20260903025521 | -17 | 138 | 0.0 | 1.6 | 0.00 | 0.00 | 0.00 | 1017.4 | |
| 20260903025022 | -17 | 138 | 0.0 | 1.6 | 0.00 | 0.00 | 0.00 | 1017.2 | |
| 20260903024521 | -17 | 138 | 0.0 | 1.6 | 0.00 | 0.00 | 0.00 | 1017.5 | |
| 20260903024020 | -17 | 138 | 0.0 | 1.6 | 0.00 | 0.00 | 0.00 | 1017.6 | |
| 20260903023520 | -17 | 140 | 0.0 | 1.6 | 0.00 | 0.00 | 0.00 | 1017.6 | |
| 20260903023024 | -17 | 136 | 0.0 | 1.6 | 0.00 | 0.00 | 0.00 | 1017.6 | |
| 20260903022521 | -17 | 123 | 0.0 | 1.6 | 0.00 | 0.00 | 0.00 | 1017.6 | |
| 20260903022020 | -17 | 116 | 0.0 | 1.6 | 0.00 | 0.00 | 0.00 | 1017.6 | |
| 20260903021521 | -17 | 127 | 0.0 | 3.2 | 0.00 | 0.00 | 0.00 | 1017.6 | |
| 20260903021019 | -17 | 126 | 0.0 | 3.2 | 0.00 | 0.00 | 0.00 | 1017.6 | |
| 20260903020520 | -17 | 124 | 0.0 | 3.2 | 0.00 | 0.00 | 0.00 | 1017.6 | |
| 20260903020019 | -17 | 101 | 0.0 | 1.6 | 0.00 | 0.00 | 0.00 | 1017.7 | |
| 20260903015519 | -17 | 124 | 0.0 | 1.6 | 0.00 | 0.00 | 0.00 | 1017.7 | |
| 20260903015019 | -17 | 125 | 0.0 | 1.6 | 0.00 | 0.00 | 0.00 | 1017.6 | |
| 20260903014518 | -17 | 125 | 0.0 | 3.2 | 0.00 | 0.00 | 0.00 | 1017.6 | |
| 20260903014018 | -17 | 121 | 0.0 | 3.2 | 0.00 | 0.00 | 0.00 | 1017.9 | |
| 20260903013519 | -17 | 126 | 1.6 | 3.2 | 0.00 | 0.00 | 0.00 | 1017.9 | |
| 20260903013019 | -17 | 136 | 0.0 | 1.6 | 0.00 | 0.00 | 0.00 | 1017.9 | |
| 20260903012517 | -17 | 127 | 0.0 | 1.6 | 0.00 | 0.00 | 0.00 | 1018.1 | |
| 20260903012020 | -17 | 131 | 0.0 | 1.6 | 0.00 | 0.00 | 0.00 | 1018.0 | |
| 20260903011518 | -17 | 143 | 0.0 | 1.6 | 0.00 | 0.00 | 0.00 | 1017.9 | |
| 20260903011018 | -17 | 109 | 0.0 | 1.6 | 0.00 | 0.00 | 0.00 | 1017.8 | |
| 20260903010517 | -17 | 112 | 0.0 | 1.6 | 0.00 | 0.00 | 0.00 | 1017.8 | |
| 20260903010036 | -17 | 113 | 0.0 | 1.6 | 0.00 | 0.00 | 0.00 | 1017.8 | |
| 20260903005517 | -17 | 83 | 0.0 | 3.2 | 0.00 | 0.00 | 0.00 | 1017.5 | |
| 20260903005017 | -17 | 137 | 1.6 | 4.8 | 0.00 | 0.00 | 0.00 | 1017.6 | |
| 20260903004517 | -17 | 125 | 1.6 | 4.8 | 0.00 | 0.00 | 0.00 | 1017.6 | |
| 20260903004016 | -17 | 126 | 1.6 | 3.2 | 0.00 | 0.00 | 0.00 | 1017.6 | |
| 20260903003517 | -17 | 136 | 0.0 | 3.2 | 0.00 | 0.00 | 0.00 | 1017.7 | |
| 20260903003016 | -17 | 136 | 1.6 | 3.2 | 0.00 | 0.00 | 0.00 | 1017.6 | |
| 20260903002519 | -17 | 132 | 1.6 | 3.2 | 0.00 | 0.00 | 0.00 | 1017.6 | |
| 20260903002016 | -17 | 128 | 1.6 | 4.8 | 0.00 | 0.00 | 0.00 | 1017.7 | |
| 20260903001528 | -17 | 110 | 0.0 | 3.2 | 0.00 | 0.00 | 0.00 | 1017.6 | |
| 20260903001017 | -17 | 132 | 1.6 | 3.2 | 0.00 | 0.00 | 0.00 | 1017.3 | |
| 20260903000518 | -17 | 113 | 0.0 | 3.2 | 0.00 | 0.00 | 0.00 | 1017.2 | |
| 20260903000016 | -17 | 84 | 0.0 | 3.2 | 0.00 | 0.00 | 0.00 | 1017.2 |